Location: Clarks Summit,Pa.
(41.5000°N, 75.6000°W)
Time: 21:07:46
(UTC-05:00)

Envisat - Visible Passes

Search period start: 18 February 2018 00:00
Search period end: 28 February 2018 00:00
Orbit: 764 x 766 km, 98.2° (Epoch: 18 February)

Date Brightness Start Highest point End Pass type
(mag) Time Alt. Az. Time Alt. Az. Time Alt. Az.
18 Feb 3.1 19:05:45 10° SSE 19:10:40 53° ENE 19:15:37 10° N visible
18 Feb 5.5 20:46:32 10° SW 20:49:59 18° W 20:53:27 10° NW visible
19 Feb 4.0 18:30:08 10° ESE 18:34:12 25° ENE 18:38:18 10° NNE visible
19 Feb 4.2 20:08:15 10° SSW 20:13:00 40° W 20:17:46 10° NNW visible
20 Feb 2.9 19:31:07 10° SSE 19:36:12 89° W 19:41:19 10° NNW visible
21 Feb 3.3 18:54:51 10° SE 18:59:35 42° ENE 19:04:21 10° N visible
21 Feb 5.2 20:34:46 10° SW 20:38:45 23° W 20:42:45 10° NW visible
22 Feb 4.3 18:19:32 10° ESE 18:23:11 20° ENE 18:26:50 10° NNE visible
22 Feb 3.8 19:56:53 10° S 20:01:49 51° W 20:06:46 10° NNW visible
23 Feb 2.9 19:20:01 10° SSE 19:25:04 73° ENE 19:30:09 10° N visible
23 Feb 5.9 21:02:21 10° WSW 21:04:37 13° W 21:06:52 10° WNW visible
24 Feb 3.6 18:44:01 10° SE 18:48:31 33° ENE 18:53:04 10° N visible
24 Feb 4.8 20:23:10 10° SSW 20:27:31 29° W 20:31:55 10° NW visible
25 Feb 3.3 19:45:37 10° S 19:50:39 65° WSW 19:55:43 10° NNW visible
26 Feb 3.0 19:09:00 10° SSE 19:13:58 58° ENE 19:18:57 10° N visible
26 Feb 5.6 20:50:10 10° SW 20:53:21 17° W 20:56:32 10° NW visible
27 Feb 3.9 18:33:16 10° ESE 18:37:28 27° ENE 18:41:42 10° N visible
27 Feb 4.4 20:11:40 10° SSW 20:16:19 36° W 20:21:01 10° NNW visible
